User: anonymous   Login
Location: Unspecified
(0.0000°N, 0.0000°E)
Time: 14:15:30
(UTC+02:00)
Language:

Ariane 42L R/B - Orbit

View from above orbital plane
View from above orbital plane
View from above satellite
View from above satellite

Ground track
Ground track

The orbit data is extracted from the following two-line orbital elements,

1 26299U 00020B   16268.90513013  .00002931  00000-0  76588-3 0  9997
2 26299   7.4038 171.7206 5947823 142.3247 279.7639  4.10669789208178
Epoch (UTC): 24 September 2016 21:43:23
Eccentricity: 0.5947823
inclination: 7.4038°
perigee height: 296 km
apogee height: 19890 km
right ascension of ascending node: 171.7206°
argument of perigee: 142.3247°
revolutions per day: 4.10669789
mean anomaly at epoch: 279.7639°
orbit number at epoch: 20817

The dashed part of the orbit path shows where the satellite is in the earth's shadow,  

DLR